• în Republica Moldova
  • Lista ţărilor
  • Pe 7 zile
  • Temperatura apei
  • Hartă satelitară
  • Meteo pe hartă
  • Widget-uri
  • user-avatar
    Intrare

    Meteo pe oră la Wien

    Astăzi, 23 Aprilie, Duminică

    Timp Temperatura Precipitaţii Vânt Presiune Umiditate
    00:00 +3°C° 0,1 mm 4 m/s 745 mmHg 90%
    01:00 +3°C° 0 mm 4 m/s 744 mmHg 90%
    02:00 +2°C° 0 mm 5 m/s 744 mmHg 90%
    03:00 +1°C° 0 mm 5 m/s 745 mmHg 90%
    04:00 +1°C° 0 mm 5 m/s 745 mmHg 89%
    05:00 +2°C° 0 mm 6 m/s 745 mmHg 87%
    06:00 +2°C° 0 mm 6 m/s 745 mmHg 84%
    07:00 +3°C° 0 mm 5 m/s 745 mmHg 82%
    08:00 +4°C° 0,1 mm 6 m/s 746 mmHg 76%
    09:00 +5°C° 0,1 mm 7 m/s 746 mmHg 69%
    10:00 +6°C° 0,1 mm 7 m/s 746 mmHg 63%
    11:00 +8°C° 0,1 mm 7 m/s 746 mmHg 60%
    12:00 +8°C° 0,1 mm 7 m/s 746 mmHg 58%
    13:00 +9°C° 0,1 mm 7 m/s 746 mmHg 55%
    14:00 +9°C° 0,2 mm 6 m/s 746 mmHg 57%
    15:00 +9°C° 0,2 mm 6 m/s 746 mmHg 58%
    16:00 +9°C° 0,2 mm 6 m/s 746 mmHg 60%
    17:00 +7°C° 0,1 mm 5 m/s 746 mmHg 66%
    18:00 +6°C° 0,1 mm 4 m/s 746 mmHg 72%
    19:00 +5°C° 0,1 mm 3 m/s 746 mmHg 78%
    20:00 +4°C° 0 mm 3 m/s 747 mmHg 81%
    21:00 +4°C° 0 mm 3 m/s 747 mmHg 83%
    22:00 +3°C° 0 mm 3 m/s 748 mmHg 85%
    23:00 +3°C° 0 mm 3 m/s 748 mmHg 86%

    Mâine, 24 Aprilie, Luni

    Timp Temperatura Precipitaţii Vânt Presiune Umiditate
    00:00 +2°C° 0 mm 3 m/s 748 mmHg 87%
    01:00 +2°C° 0 mm 3 m/s 748 mmHg 88%
    02:00 +1°C° 0 mm 3 m/s 748 mmHg 89%
    03:00 +2°C° 0 mm 2 m/s 748 mmHg 89%
    04:00 +1°C° 0 mm 2 m/s 747 mmHg 90%
    05:00 +2°C° 0 mm 2 m/s 747 mmHg 85%
    06:00 +4°C° 0 mm 2 m/s 747 mmHg 81%
    07:00 +6°C° 0 mm 1 m/s 747 mmHg 76%
    08:00 +7°C° 0 mm 1 m/s 747 mmHg 70%
    09:00 +8°C° 0 mm 2 m/s 747 mmHg 64%
    10:00 +10°C° 0 mm 2 m/s 747 mmHg 59%
    11:00 +10°C° 0 mm 2 m/s 746 mmHg 58%
    12:00 +11°C° 0 mm 3 m/s 746 mmHg 58%
    13:00 +12°C° 0 mm 4 m/s 745 mmHg 58%
    14:00 +13°C° 0 mm 4 m/s 744 mmHg 59%
    15:00 +13°C° 0 mm 4 m/s 744 mmHg 60%
    16:00 +13°C° 0 mm 4 m/s 743 mmHg 61%
    17:00 +12°C° 0 mm 4 m/s 743 mmHg 69%
    18:00 +10°C° 0 mm 3 m/s 742 mmHg 77%
    19:00 +9°C° 0 mm 3 m/s 742 mmHg 86%
    20:00 +8°C° 0 mm 3 m/s 742 mmHg 88%
    21:00 +7°C° 0 mm 3 m/s 742 mmHg 90%
    22:00 +7°C° 0 mm 3 m/s 741 mmHg 92%
    23:00 +6°C° 0 mm 2 m/s 741 mmHg 92%

    Poimâine, 25 Aprilie, Marţi

    Timp Temperatura Precipitaţii Vânt Presiune Umiditate
    00:00 +6°C° 0 mm 2 m/s 741 mmHg 93%
    01:00 +5°C° 0 mm 2 m/s 740 mmHg 93%
    02:00 +5°C° 0 mm 2 m/s 740 mmHg 93%
    03:00 +5°C° 0 mm 2 m/s 739 mmHg 93%
    04:00 +5°C° 0 mm 2 m/s 739 mmHg 93%
    05:00 +6°C° 0 mm 2 m/s 739 mmHg 89%
    06:00 +8°C° 0 mm 2 m/s 739 mmHg 86%
    07:00 +9°C° 0 mm 3 m/s 738 mmHg 82%
    08:00 +11°C° 0 mm 3 m/s 738 mmHg 76%
    09:00 +13°C° 0 mm 3 m/s 738 mmHg 70%
    10:00 +15°C° 0 mm 4 m/s 738 mmHg 65%
    11:00 +17°C° 0 mm 4 m/s 737 mmHg 62%
    12:00 +18°C° 0 mm 4 m/s 737 mmHg 60%
    13:00 +19°C° 0 mm 4 m/s 737 mmHg 57%
    14:00 +19°C° 0 mm 3 m/s 736 mmHg 59%
    15:00 +18°C° 0 mm 3 m/s 736 mmHg 61%
    16:00 +18°C° 0 mm 2 m/s 735 mmHg 62%
    17:00 +17°C° 0 mm 3 m/s 735 mmHg 69%
    18:00 +14°C° 0 mm 3 m/s 735 mmHg 75%
    19:00 +12°C° 0 mm 4 m/s 734 mmHg 82%
    20:00 +12°C° 0,2 mm 5 m/s 735 mmHg 81%
    21:00 +10°C° 0,2 mm 5 m/s 736 mmHg 81%
    22:00 +10°C° 0,2 mm 6 m/s 736 mmHg 81%
    23:00 +9°C° 0,1 mm 5 m/s 736 mmHg 83%

    26 Aprilie, Miercuri

    Timp Temperatura Precipitaţii Vânt Presiune Umiditate
    00:00 +9°C° 0,1 mm 3 m/s 737 mmHg 86%
    01:00 +9°C° 0,1 mm 1 m/s 737 mmHg 88%
    02:00 +8°C° 0,5 mm 2 m/s 737 mmHg 89%
    03:00 +8°C° 0,5 mm 2 m/s 737 mmHg 90%
    04:00 +8°C° 0,5 mm 2 m/s 737 mmHg 90%
    05:00 +8°C° 0,7 mm 2 m/s 737 mmHg 91%
    06:00 +7°C° 0,7 mm 3 m/s 737 mmHg 92%
    07:00 +7°C° 0,7 mm 3 m/s 737 mmHg 93%
    08:00 +7°C° 0,8 mm 3 m/s 738 mmHg 92%
    09:00 +7°C° 0,8 mm 3 m/s 738 mmHg 91%
    10:00 +7°C° 0,8 mm 3 m/s 738 mmHg 90%
    11:00 +6°C° 0,7 mm 4 m/s 738 mmHg 90%
    12:00 +6°C° 0,7 mm 4 m/s 738 mmHg 90%
    13:00 +6°C° 0,7 mm 4 m/s 737 mmHg 90%
    14:00 +6°C° 1 mm 4 m/s 737 mmHg 90%
    15:00 +6°C° 1 mm 4 m/s 737 mmHg 91%
    16:00 +5°C° 1 mm 4 m/s 737 mmHg 91%
    17:00 +5°C° 0,6 mm 4 m/s 737 mmHg 92%
    18:00 +5°C° 0,6 mm 4 m/s 738 mmHg 92%
    19:00 +4°C° 0,6 mm 4 m/s 738 mmHg 93%
    20:00 +4°C° 0,4 mm 4 m/s 738 mmHg 93%
    21:00 +4°C° 0,4 mm 4 m/s 738 mmHg 93%
    22:00 +4°C° 0,4 mm 4 m/s 738 mmHg 93%
    23:00 +3°C° 0,4 mm 4 m/s 738 mmHg 93%

    27 Aprilie, Joi

    Timp Temperatura Precipitaţii Vânt Presiune Umiditate
    00:00 +3°C° 0,4 mm 4 m/s 738 mmHg 93%
    01:00 +3°C° 0,4 mm 3 m/s 738 mmHg 93%
    02:00 +3°C° 0,1 mm 3 m/s 738 mmHg 93%
    03:00 +3°C° 0,1 mm 3 m/s 738 mmHg 93%
    04:00 +3°C° 0,1 mm 3 m/s 738 mmHg 93%
    05:00 +3°C° 0 mm 3 m/s 738 mmHg 92%
    06:00 +3°C° 0 mm 3 m/s 738 mmHg 91%
    07:00 +4°C° 0 mm 3 m/s 738 mmHg 90%
    08:00 +4°C° 0 mm 3 m/s 738 mmHg 88%
    09:00 +5°C° 0 mm 3 m/s 738 mmHg 86%
    10:00 +7°C° 0 mm 3 m/s 739 mmHg 84%
    11:00 +8°C° 0 mm 3 m/s 738 mmHg 83%
    12:00 +8°C° 0 mm 3 m/s 738 mmHg 82%
    13:00 +9°C° 0 mm 3 m/s 738 mmHg 82%
    14:00 +8°C° 0,4 mm 3 m/s 738 mmHg 84%
    15:00 +8°C° 0,4 mm 3 m/s 738 mmHg 87%
    16:00 +8°C° 0,4 mm 3 m/s 737 mmHg 89%
    17:00 +7°C° 1 mm 2 m/s 737 mmHg 92%
    18:00 +7°C° 1 mm 2 m/s 737 mmHg 94%
    19:00 +6°C° 1 mm 2 m/s 737 mmHg 97%
    20:00 +6°C° 0,5 mm 2 m/s 737 mmHg 97%
    21:00 +6°C° 0,5 mm 2 m/s 738 mmHg 97%
    22:00 +6°C° 0,5 mm 2 m/s 738 mmHg 97%
    23:00 +5°C° 0,2 mm 3 m/s 738 mmHg 96%

    28 Aprilie, Vineri

    Timp Temperatura Precipitaţii Vânt Presiune Umiditate
    00:00 +5°C° 0,2 mm 3 m/s 738 mmHg 96%
    01:00 +4°C° 0,2 mm 3 m/s 738 mmHg 95%
    02:00 +4°C° 0,1 mm 3 m/s 738 mmHg 95%
    03:00 +4°C° 0,1 mm 4 m/s 738 mmHg 95%
    04:00 +4°C° 0,1 mm 4 m/s 738 mmHg 94%
    05:00 +4°C° 0,1 mm 4 m/s 739 mmHg 93%
    06:00 +3°C° 0,1 mm 5 m/s 739 mmHg 92%
    07:00 +3°C° 0,1 mm 5 m/s 739 mmHg 91%
    08:00 +5°C° 0,2 mm 5 m/s 739 mmHg 89%
    09:00 +5°C° 0,2 mm 5 m/s 740 mmHg 88%
    10:00 +5°C° 0,2 mm 5 m/s 740 mmHg 86%
    11:00 +6°C° 0,3 mm 5 m/s 740 mmHg 85%
    12:00 +5°C° 0,3 mm 6 m/s 740 mmHg 83%
    13:00 +7°C° 0,3 mm 6 m/s 740 mmHg 82%
    14:00 +7°C° 0,3 mm 6 m/s 741 mmHg 81%
    15:00 +7°C° 0,3 mm 6 m/s 741 mmHg 80%
    16:00 +7°C° 0,3 mm 6 m/s 741 mmHg 80%
    17:00 +6°C° 0,1 mm 5 m/s 742 mmHg 81%
    18:00 +5°C° 0,1 mm 5 m/s 742 mmHg 83%
    19:00 +3°C° 0,1 mm 5 m/s 742 mmHg 84%
    20:00 +3°C° 0 mm 5 m/s 743 mmHg 85%
    21:00 +3°C° 0 mm 4 m/s 743 mmHg 87%
    22:00 +1°C° 0 mm 4 m/s 743 mmHg 88%
    23:00 +1°C° 0 mm 5 m/s 743 mmHg 87%
    Arată mai mult